Time,TemperatureF,DewpointF,PressureIn,WindDirection,WindDirectionDegrees,WindSpeedMPH,WindSpeedGustMPH,Humidity,HourlyPrecipIn,Conditions,Clouds,dailyrainin,SoftwareType,DateUTC
2013-01-22 00:02:00,2.0,-6.0,30.32,WNW,294,5.0,13.0,69,0.00,,,0.00,,2013-01-22 06:02:00,
2013-01-22 00:12:00,2.0,-6.0,30.32,WNW,294,5.0,13.0,69,0.00,,,0.00,,2013-01-22 06:12:00,
2013-01-22 00:22:00,2.0,-6.0,30.32,West,274,6.0,13.0,69,0.00,,,0.00,,2013-01-22 06:22:00,
2013-01-22 00:32:00,2.0,-6.0,30.32,West,276,7.0,13.0,70,0.00,,,0.00,,2013-01-22 06:32:00,
2013-01-22 00:42:00,2.0,-6.0,30.32,West,276,7.0,13.0,70,0.00,,,0.00,,2013-01-22 06:42:00,
2013-01-22 00:52:00,2.0,-6.0,30.32,West,280,6.0,12.0,70,0.00,,,0.00,,2013-01-22 06:52:00,
2013-01-22 01:02:00,2.0,-5.0,30.32,West,273,6.0,12.0,71,0.00,,,0.00,,2013-01-22 07:02:00,
2013-01-22 01:12:00,2.0,-5.0,30.32,West,273,6.0,12.0,71,0.00,,,0.00,,2013-01-22 07:12:00,
2013-01-22 01:22:00,1.0,-6.0,30.33,West,276,6.0,15.0,70,0.00,,,0.00,,2013-01-22 07:22:00,
2013-01-22 01:32:00,1.0,-6.0,30.33,West,275,5.0,12.0,70,0.00,,,0.00,,2013-01-22 07:32:00,
2013-01-22 01:42:00,1.0,-6.0,30.33,West,275,5.0,12.0,70,0.00,,,0.00,,2013-01-22 07:42:00,
2013-01-22 01:52:00,1.0,-6.0,30.33,West,259,4.0,12.0,71,0.00,,,0.00,,2013-01-22 07:52:00,
2013-01-22 02:02:00,1.0,-6.0,30.34,WNW,290,3.0,12.0,72,0.00,,,0.00,,2013-01-22 08:02:00,
2013-01-22 02:12:00,1.0,-6.0,30.34,WNW,290,3.0,12.0,72,0.00,,,0.00,,2013-01-22 08:12:00,
2013-01-22 02:22:00,1.0,-6.0,30.34,WNW,283,6.0,12.0,72,0.00,,,0.00,,2013-01-22 08:22:00,
2013-01-22 02:32:00,0.0,-7.0,30.35,West,279,3.0,9.0,70,0.00,,,0.00,,2013-01-22 08:32:00,
2013-01-22 02:42:00,0.0,-7.0,30.35,West,279,3.0,9.0,70,0.00,,,0.00,,2013-01-22 08:42:00,
2013-01-22 02:52:00,0.0,-7.0,30.35,West,280,5.0,12.0,70,0.00,,,0.00,,2013-01-22 08:52:00,
2013-01-22 03:02:00,0.0,-7.0,30.36,West,281,3.0,12.0,70,0.00,,,0.00,,2013-01-22 09:02:00,
2013-01-22 03:12:00,0.0,-7.0,30.36,West,281,3.0,12.0,70,0.00,,,0.00,,2013-01-22 09:12:00,
2013-01-22 03:22:00,0.0,-8.0,30.35,West,274,6.0,14.0,69,0.00,,,0.00,,2013-01-22 09:22:00,
2013-01-22 03:32:00,0.0,-7.0,30.36,WSW,256,5.0,13.0,70,0.00,,,0.00,,2013-01-22 09:32:00,
2013-01-22 03:42:00,0.0,-7.0,30.36,WSW,256,5.0,13.0,70,0.00,,,0.00,,2013-01-22 09:42:00,
2013-01-22 03:52:00,0.0,-7.0,30.36,WNW,286,5.0,13.0,71,0.00,,,0.00,,2013-01-22 09:52:00,
2013-01-22 04:02:00,0.0,-7.0,30.36,West,276,5.0,13.0,71,0.00,,,0.00,,2013-01-22 10:02:00,
2013-01-22 04:12:00,0.0,-7.0,30.36,West,276,5.0,13.0,71,0.00,,,0.00,,2013-01-22 10:12:00,
2013-01-22 04:22:00,-1.0,-8.0,30.36,NW,307,8.0,16.0,71,0.00,,,0.00,,2013-01-22 10:22:00,
2013-01-22 04:32:00,-1.0,-8.0,30.36,WNW,289,5.0,12.0,72,0.00,,,0.00,,2013-01-22 10:32:00,
2013-01-22 04:42:00,-1.0,-8.0,30.36,WNW,289,5.0,12.0,72,0.00,,,0.00,,2013-01-22 10:42:00,
2013-01-22 04:52:00,-1.0,-8.0,30.36,WNW,288,4.0,9.0,72,0.00,,,0.00,,2013-01-22 10:52:00,
2013-01-22 05:02:00,-1.0,-8.0,30.36,West,276,3.0,8.0,73,0.00,,,0.00,,2013-01-22 11:02:00,
2013-01-22 05:12:00,-1.0,-8.0,30.36,West,276,3.0,8.0,73,0.00,,,0.00,,2013-01-22 11:12:00,
2013-01-22 05:22:00,-1.0,-8.0,30.36,West,276,3.0,8.0,73,0.00,,,0.00,,2013-01-22 11:22:00,
2013-01-22 05:33:00,-1.0,-7.0,30.36,West,265,4.0,9.0,74,0.00,,,0.00,,2013-01-22 11:33:00,
2013-01-22 05:42:00,-1.0,-7.0,30.36,West,265,4.0,9.0,74,0.00,,,0.00,,2013-01-22 11:42:00,
2013-01-22 05:53:00,-2.0,-8.0,30.37,West,270,4.0,6.0,74,0.00,,,0.00,,2013-01-22 11:53:00,
2013-01-22 06:03:00,-2.0,-8.0,30.37,WNW,288,4.0,7.0,74,0.00,,,0.00,,2013-01-22 12:03:00,
2013-01-22 06:12:00,-2.0,-8.0,30.37,WNW,288,4.0,7.0,74,0.00,,,0.00,,2013-01-22 12:12:00,
2013-01-22 06:23:00,-2.0,-8.0,30.37,West,278,2.0,7.0,74,0.00,,,0.00,,2013-01-22 12:23:00,
2013-01-22 06:33:00,-2.0,-8.0,30.37,West,278,2.0,7.0,74,0.00,,,0.00,,2013-01-22 12:33:00,
2013-01-22 06:43:00,-2.0,-8.0,30.38,West,275,5.0,7.0,76,0.00,,,0.00,,2013-01-22 12:43:00,
2013-01-22 06:52:00,-2.0,-8.0,30.38,West,279,3.0,9.0,75,0.00,,,0.00,,2013-01-22 12:52:00,
2013-01-22 07:04:00,-2.0,-8.0,30.38,WNW,282,5.0,8.0,75,0.00,,,0.00,,2013-01-22 13:04:00,
2013-01-22 07:13:00,-2.0,-8.0,30.38,WNW,282,5.0,8.0,75,0.00,,,0.00,,2013-01-22 13:13:00,
2013-01-22 07:23:00,-2.0,-8.0,30.39,West,274,5.0,9.0,74,0.00,,,0.00,,2013-01-22 13:23:00,
2013-01-22 07:33:00,-2.0,-8.0,30.40,WNW,288,6.0,10.0,74,0.00,,,0.00,,2013-01-22 13:33:00,
2013-01-22 07:43:00,-2.0,-8.0,30.40,WNW,288,6.0,10.0,74,0.00,,,0.00,,2013-01-22 13:43:00,
2013-01-22 07:53:00,-2.0,-8.0,30.40,West,272,6.0,9.0,74,0.00,,,0.00,,2013-01-22 13:53:00,
2013-01-22 08:03:00,-2.0,-8.0,30.40,WNW,284,5.0,8.0,74,0.00,,,0.00,,2013-01-22 14:03:00,
2013-01-22 08:13:00,-2.0,-8.0,30.40,WNW,284,5.0,8.0,74,0.00,,,0.00,,2013-01-22 14:13:00,
2013-01-22 08:23:00,-2.0,-8.0,30.40,WNW,284,5.0,8.0,74,0.00,,,0.00,,2013-01-22 14:23:00,
2013-01-22 08:34:00,-2.0,-8.0,30.41,West,277,5.0,12.0,74,0.00,,,0.00,,2013-01-22 14:34:00,
2013-01-22 08:44:00,-2.0,-8.0,30.41,West,277,5.0,12.0,74,0.00,,,0.00,,2013-01-22 14:44:00,
2013-01-22 08:54:00,-1.0,-8.0,30.41,WNW,284,6.0,12.0,73,0.00,,,0.00,,2013-01-22 14:54:00,
2013-01-22 09:03:00,-1.0,-8.0,30.42,West,268,10.0,14.0,71,0.00,,,0.00,,2013-01-22 15:03:00,
2013-01-22 09:13:00,-1.0,-8.0,30.42,West,268,10.0,14.0,71,0.00,,,0.00,,2013-01-22 15:13:00,
2013-01-22 09:23:00,-1.0,-8.0,30.42,West,275,7.0,13.0,71,0.00,,,0.00,,2013-01-22 15:23:00,
2013-01-22 09:34:00,0.0,-7.0,30.42,West,264,7.0,13.0,71,0.00,,,0.00,,2013-01-22 15:34:00,
2013-01-22 09:43:00,0.0,-7.0,30.42,West,264,7.0,13.0,71,0.00,,,0.00,,2013-01-22 15:43:00,
2013-01-22 09:52:00,0.0,-7.0,30.43,WSW,252,7.0,13.0,71,0.00,,,0.00,,2013-01-22 15:52:00,
2013-01-22 10:03:00,0.0,-7.0,30.43,West,274,6.0,13.0,70,0.00,,,0.00,,2013-01-22 16:03:00,
2013-01-22 10:13:00,0.0,-7.0,30.43,West,274,6.0,13.0,70,0.00,,,0.00,,2013-01-22 16:13:00,
2013-01-22 10:23:00,1.0,-7.0,30.43,WNW,287,6.0,12.0,68,0.00,,,0.00,,2013-01-22 16:23:00,
2013-01-22 10:33:00,1.0,-6.0,30.43,West,279,8.0,16.0,70,0.00,,,0.00,,2013-01-22 16:33:00,
2013-01-22 10:43:00,1.0,-6.0,30.43,West,279,8.0,16.0,70,0.00,,,0.00,,2013-01-22 16:43:00,
2013-01-22 10:53:00,2.0,-6.0,30.43,West,279,7.0,14.0,68,0.00,,,0.00,,2013-01-22 16:53:00,
2013-01-22 11:03:00,2.0,-7.0,30.42,West,273,7.0,15.0,65,0.00,,,0.00,,2013-01-22 17:03:00,
2013-01-22 11:13:00,2.0,-7.0,30.42,West,273,7.0,15.0,65,0.00,,,0.00,,2013-01-22 17:13:00,
2013-01-22 11:23:00,3.0,-6.0,30.42,West,262,6.0,12.0,66,0.00,,,0.00,,2013-01-22 17:23:00,
2013-01-22 11:34:00,4.0,-5.0,30.42,WSW,246,10.0,14.0,66,0.00,,,0.00,,2013-01-22 17:34:00,
2013-01-22 11:43:00,4.0,-5.0,30.42,WSW,246,10.0,14.0,66,0.00,,,0.00,,2013-01-22 17:43:00,
2013-01-22 11:53:00,4.0,-5.0,30.42,West,279,6.0,17.0,65,0.00,,,0.00,,2013-01-22 17:53:00,
2013-01-22 12:03:00,5.0,-4.0,30.42,West,270,6.0,16.0,64,0.00,,,0.00,,2013-01-22 18:03:00,
2013-01-22 12:13:00,5.0,-4.0,30.42,West,270,6.0,16.0,64,0.00,,,0.00,,2013-01-22 18:13:00,
2013-01-22 12:23:00,5.0,-5.0,30.42,WNW,285,9.0,14.0,63,0.00,,,0.00,,2013-01-22 18:23:00,
2013-01-22 12:33:00,6.0,-5.0,30.40,West,268,10.0,18.0,61,0.00,,,0.00,,2013-01-22 18:33:00,
2013-01-22 12:43:00,6.0,-5.0,30.40,West,268,10.0,18.0,61,0.00,,,0.00,,2013-01-22 18:43:00,
2013-01-22 12:53:00,6.0,-4.0,30.40,West,276,9.0,20.0,62,0.00,,,0.00,,2013-01-22 18:53:00,
2013-01-22 13:03:00,7.0,-4.0,30.39,West,274,11.0,20.0,61,0.00,,,0.00,,2013-01-22 19:03:00,
2013-01-22 13:13:00,7.0,-4.0,30.39,West,274,11.0,20.0,61,0.00,,,0.00,,2013-01-22 19:13:00,
2013-01-22 13:23:00,7.0,-4.0,30.38,West,272,9.0,16.0,60,0.00,,,0.00,,2013-01-22 19:23:00,
2013-01-22 13:33:00,9.0,-2.0,30.38,West,276,7.0,18.0,60,0.00,,,0.00,,2013-01-22 19:33:00,
2013-01-22 13:43:00,9.0,-2.0,30.38,West,276,7.0,18.0,60,0.00,,,0.00,,2013-01-22 19:43:00,
2013-01-22 13:53:00,9.0,-2.0,30.38,West,271,5.0,18.0,59,0.00,,,0.00,,2013-01-22 19:53:00,
2013-01-22 14:03:00,9.0,-3.0,30.38,WSW,252,9.0,15.0,58,0.00,,,0.00,,2013-01-22 20:03:00,
2013-01-22 14:13:00,9.0,-3.0,30.38,WSW,252,9.0,15.0,58,0.00,,,0.00,,2013-01-22 20:13:00,
2013-01-22 14:23:00,9.0,-3.0,30.38,West,273,7.0,20.0,57,0.00,,,0.00,,2013-01-22 20:23:00,
2013-01-22 14:33:00,10.0,-3.0,30.37,West,275,11.0,22.0,56,0.00,,,0.00,,2013-01-22 20:33:00,
2013-01-22 14:43:00,10.0,-3.0,30.37,West,275,11.0,22.0,56,0.00,,,0.00,,2013-01-22 20:43:00,
2013-01-22 14:53:00,10.0,-3.0,30.38,WNW,282,8.0,20.0,56,0.00,,,0.00,,2013-01-22 20:53:00,
2013-01-22 15:03:00,10.0,-3.0,30.38,West,275,10.0,17.0,56,0.00,,,0.00,,2013-01-22 21:03:00,
2013-01-22 15:13:00,10.0,-3.0,30.38,West,275,10.0,17.0,56,0.00,,,0.00,,2013-01-22 21:13:00,
2013-01-22 15:23:00,10.0,-3.0,30.38,WNW,293,9.0,20.0,54,0.00,,,0.00,,2013-01-22 21:23:00,
2013-01-22 15:33:00,10.0,-3.0,30.37,West,277,10.0,20.0,55,0.00,,,0.00,,2013-01-22 21:33:00,
2013-01-22 15:43:00,10.0,-3.0,30.37,West,277,10.0,20.0,55,0.00,,,0.00,,2013-01-22 21:43:00,
2013-01-22 15:53:00,11.0,-2.0,30.38,WNW,288,10.0,18.0,55,0.00,,,0.00,,2013-01-22 21:53:00,
2013-01-22 16:03:00,10.0,-4.0,30.38,West,266,11.0,18.0,53,0.00,,,0.00,,2013-01-22 22:03:00,
2013-01-22 16:12:00,10.0,-4.0,30.38,West,266,11.0,18.0,53,0.00,,,0.00,,2013-01-22 22:12:00,
2013-01-22 16:22:00,10.0,-4.0,30.38,West,266,11.0,18.0,53,0.00,,,0.00,,2013-01-22 22:22:00,
2013-01-22 16:32:00,10.0,-4.0,30.38,West,266,11.0,18.0,53,0.00,,,0.00,,2013-01-22 22:32:00,
2013-01-22 16:43:00,10.0,-3.0,30.37,West,281,7.0,14.0,56,0.00,,,0.00,,2013-01-22 22:43:00,
2013-01-22 16:53:00,10.0,-3.0,30.37,West,277,7.0,14.0,56,0.00,,,0.00,,2013-01-22 22:53:00,
2013-01-22 17:03:00,9.0,-3.0,30.37,West,269,8.0,15.0,56,0.00,,,0.00,,2013-01-22 23:03:00,
2013-01-22 17:12:00,9.0,-3.0,30.37,West,269,8.0,15.0,56,0.00,,,0.00,,2013-01-22 23:12:00,
2013-01-22 17:23:00,9.0,-3.0,30.37,West,279,5.0,8.0,57,0.00,,,0.00,,2013-01-22 23:23:00,
2013-01-22 17:33:00,9.0,-3.0,30.37,West,273,3.0,10.0,58,0.00,,,0.00,,2013-01-22 23:33:00,
2013-01-22 17:43:00,9.0,-3.0,30.37,West,273,3.0,10.0,58,0.00,,,0.00,,2013-01-22 23:43:00,
2013-01-22 17:52:00,9.0,-3.0,30.37,West,270,4.0,9.0,58,0.00,,,0.00,,2013-01-22 23:52:00,
2013-01-22 18:03:00,9.0,-2.0,30.38,West,278,4.0,9.0,59,0.00,,,0.00,,2013-01-23 00:03:00,
2013-01-22 18:12:00,9.0,-2.0,30.38,West,278,4.0,9.0,59,0.00,,,0.00,,2013-01-23 00:12:00,
2013-01-22 18:22:00,9.0,-2.0,30.38,West,278,4.0,9.0,59,0.00,,,0.00,,2013-01-23 00:22:00,
2013-01-22 18:33:00,9.0,-2.0,30.37,WNW,286,5.0,9.0,60,0.00,,,0.00,,2013-01-23 00:33:00,
2013-01-22 18:43:00,9.0,-2.0,30.37,WNW,286,5.0,9.0,60,0.00,,,0.00,,2013-01-23 00:43:00,
2013-01-22 18:52:00,9.0,-2.0,30.37,West,273,2.0,7.0,61,0.00,,,0.00,,2013-01-23 00:52:00,
2013-01-22 19:03:00,9.0,-2.0,30.37,West,273,5.0,8.0,61,0.00,,,0.00,,2013-01-23 01:03:00,
2013-01-22 19:13:00,9.0,-2.0,30.37,West,273,5.0,8.0,61,0.00,,,0.00,,2013-01-23 01:13:00,
2013-01-22 19:22:00,9.0,-2.0,30.38,WNW,294,3.0,8.0,61,0.00,,,0.00,,2013-01-23 01:22:00,
2013-01-22 19:33:00,9.0,-1.0,30.37,West,281,2.0,9.0,62,0.00,,,0.00,,2013-01-23 01:33:00,
2013-01-22 19:43:00,9.0,-1.0,30.37,West,281,2.0,9.0,62,0.00,,,0.00,,2013-01-23 01:43:00,
2013-01-22 19:52:00,9.0,-1.0,30.37,West,281,2.0,9.0,62,0.00,,,0.00,,2013-01-23 01:52:00,
2013-01-22 20:03:00,9.0,-2.0,30.37,West,279,4.0,9.0,61,0.00,,,0.00,,2013-01-23 02:03:00,
2013-01-22 20:12:00,9.0,-2.0,30.37,West,279,4.0,9.0,61,0.00,,,0.00,,2013-01-23 02:12:00,
2013-01-22 20:23:00,9.0,-2.0,30.37,West,280,3.0,9.0,61,0.00,,,0.00,,2013-01-23 02:23:00,
2013-01-22 20:33:00,9.0,-2.0,30.38,WNW,284,4.0,8.0,61,0.00,,,0.00,,2013-01-23 02:33:00,
2013-01-22 20:43:00,9.0,-2.0,30.38,WNW,284,4.0,8.0,61,0.00,,,0.00,,2013-01-23 02:43:00,
2013-01-22 20:53:00,9.0,-1.0,30.37,West,278,3.0,8.0,62,0.00,,,0.00,,2013-01-23 02:53:00,
2013-01-22 21:03:00,9.0,-1.0,30.37,West,273,3.0,7.0,62,0.00,,,0.00,,2013-01-23 03:03:00,
2013-01-22 21:12:00,9.0,-1.0,30.37,West,273,3.0,7.0,62,0.00,,,0.00,,2013-01-23 03:12:00,
2013-01-22 21:23:00,9.0,-2.0,30.37,West,274,5.0,8.0,61,0.00,,,0.00,,2013-01-23 03:23:00,
2013-01-22 21:33:00,9.0,-2.0,30.37,West,275,5.0,8.0,61,0.00,,,0.00,,2013-01-23 03:33:00,
2013-01-22 21:42:00,9.0,-2.0,30.37,West,275,5.0,8.0,61,0.00,,,0.00,,2013-01-23 03:42:00,
2013-01-22 21:53:00,9.0,-2.0,30.37,West,276,5.0,8.0,61,0.00,,,0.00,,2013-01-23 03:53:00,
2013-01-22 22:03:00,9.0,-2.0,30.37,West,272,4.0,7.0,61,0.00,,,0.00,,2013-01-23 04:03:00,
2013-01-22 22:12:00,9.0,-2.0,30.37,West,272,4.0,7.0,61,0.00,,,0.00,,2013-01-23 04:12:00,
2013-01-22 22:22:00,9.0,-2.0,30.37,West,276,3.0,7.0,60,0.00,,,0.00,,2013-01-23 04:22:00,
2013-01-22 22:33:00,9.0,-2.0,30.38,West,278,3.0,8.0,61,0.00,,,0.00,,2013-01-23 04:33:00,
2013-01-22 22:43:00,9.0,-2.0,30.38,West,278,3.0,8.0,61,0.00,,,0.00,,2013-01-23 04:43:00,
2013-01-22 22:52:00,9.0,-2.0,30.38,West,270,3.0,8.0,61,0.00,,,0.00,,2013-01-23 04:52:00,
2013-01-22 23:03:00,9.0,-2.0,30.38,West,272,5.0,8.0,61,0.00,,,0.00,,2013-01-23 05:03:00,
2013-01-22 23:12:00,9.0,-2.0,30.38,West,272,5.0,8.0,61,0.00,,,0.00,,2013-01-23 05:12:00,
2013-01-22 23:22:00,9.0,-2.0,30.38,West,272,5.0,8.0,61,0.00,,,0.00,,2013-01-23 05:22:00,
2013-01-22 23:33:00,10.0,-1.0,30.39,WSW,257,5.0,7.0,61,0.00,,,0.00,,2013-01-23 05:33:00,
2013-01-22 23:43:00,10.0,-1.0,30.39,WSW,257,5.0,7.0,61,0.00,,,0.00,,2013-01-23 05:43:00,
2013-01-22 23:53:00,10.0,-1.0,30.39,WSW,257,5.0,7.0,61,0.00,,,0.00,,2013-01-23 05:53:00,